Location: Berg
(47.2344°N, 9.5296°E)
Time: 21:11:46
(UTC+00:00)

Meteor 1-27 - Pass Details

Date: 24 January 2021
Orbit: 837 x 893 km, 81.3° (Epoch: 04 March)

Event Time Altitude Azimuth Distance (km) Brightness Sun altitude
Rises 18:11:53 0° 351° (N) 3,435 7.4 -20.2°
Reaches altitude 10° 18:14:24 10° 356° (N) 2,487 6.6 -20.6°
Maximum altitude 18:19:56 56° 75° (ENE) 995 4.2 -21.5°
Enters shadow 18:23:18 23° 145° (SE) 1,709 5.5 -22.1°
